Weather reports worldwide

Advertisment
Malaga/Aeropuerto, Spain (8482): temperature & dewpoint: 20.09.2018 11:00:00 - 26.09.2018 11:00:00 (CEST)Malaga/Aeropuerto, Spain (8482): wind speed: 20.09.2018 11:00:00 - 26.09.2018 11:00:00 (CEST)Malaga/Aeropuerto, Spain (8482): wind direction: 20.09.2018 11:00:00 - 26.09.2018 11:00:00 (CEST)Malaga/Aeropuerto, Spain (8482): reduced air pressure: 20.09.2018 11:00:00 - 26.09.2018 11:00:00 (CEST)Malaga/Aeropuerto, Spain (8482): visibility: 20.09.2018 11:00:00 - 26.09.2018 11:00:00 (CEST)
Date & Time tt [°C] td [°C] ff [km/h] ff [kn] dd ppp [hPa] vv [km]
26.09.2018 11:00:00 25,9 21,8 13 7 SSE 1025,4 20
26.09.2018 10:00:00 25,3 21,6 11 6 SE 1024,8 -
26.09.2018 09:00:00 24,6 21,5 8 4 SSE 1024,4 15
26.09.2018 08:00:00 24,3 21,6 9 5 SSE 1023,9 15
26.09.2018 07:00:00 24,1 21,5 11 6 SSE 1023,4 -
26.09.2018 06:00:00 24,3 22,0 11 6 SSE 1023,2 -
26.09.2018 05:00:00 24,5 21,8 15 8 SSE 1022,8 15
26.09.2018 04:00:00 24,7 22,1 13 7 SSE 1023,0 -
26.09.2018 03:00:00 24,7 22,3 13 7 SSE 1023,3 -
26.09.2018 02:00:00 24,8 22,3 9 5 SE 1023,5 15
26.09.2018 01:00:00 25,0 22,1 9 5 SSE 1023,3 -
26.09.2018 00:00:00 24,6 21,9 4 2 S 1022,9 -
25.09.2018 23:00:00 24,5 21,4 0 0 N 1022,5 20
25.09.2018 22:00:00 25,1 21,6 4 2 ESE 1021,9 20
25.09.2018 21:00:00 25,5 21,5 4 2 SE 1021,3 -
25.09.2018 20:00:00 26,4 21,3 8 4 ESE 1020,7 20
25.09.2018 19:00:00 27,4 21,6 9 5 SE 1020,7 -
25.09.2018 18:00:00 28,7 21,0 13 7 SE 1020,9 -
25.09.2018 17:00:00 29,3 20,9 13 7 SE 1020,9 20
25.09.2018 16:00:00 29,0 20,4 13 7 SE 1021,2 -
25.09.2018 15:00:00 28,9 22,1 13 7 SE 1021,7 20
25.09.2018 14:00:00 28,7 22,5 16 9 SSE 1022,4 20
25.09.2018 13:00:00 28,0 22,3 16 9 SSE 1022,7 -
25.09.2018 12:00:00 28,5 18,8 18 10 SE 1022,5 -
25.09.2018 11:00:00 26,7 14,1 2 1 NE 1022,3 30
25.09.2018 10:00:00 22,6 11,9 9 5 WNW 1021,6 -
25.09.2018 09:00:00 19,9 11,6 15 8 WNW 1021,0 30
25.09.2018 08:00:00 19,4 11,6 13 7 WNW 1020,4 30
25.09.2018 07:00:00 19,9 11,5 13 7 WNW 1020,0 -
25.09.2018 06:00:00 20,0 11,6 13 7 WNW 1019,8 -
25.09.2018 05:00:00 21,1 11,2 13 7 W 1019,8 20
25.09.2018 04:00:00 21,3 11,6 15 8 W 1020,1 -
25.09.2018 03:00:00 22,3 11,5 15 8 W 1020,2 -
25.09.2018 02:00:00 22,9 11,8 16 9 WNW 1020,3 30
25.09.2018 01:00:00 23,8 11,8 15 8 WNW 1020,4 -
25.09.2018 00:00:00 25,1 14,2 8 4 W 1020,4 -
24.09.2018 23:00:00 23,9 14,7 0 0 N 1020,3 30
24.09.2018 22:00:00 25,2 15,2 0 0 N 1019,7 -
24.09.2018 21:00:00 26,6 15,1 8 4 SE 1019,2 -
24.09.2018 20:00:00 28,5 15,5 8 4 ESE 1019,0 30
24.09.2018 19:00:00 30,1 14,0 9 5 ESE 1018,7 -
24.09.2018 18:00:00 30,3 13,3 13 7 E 1018,8 -
24.09.2018 17:00:00 31,8 14,1 13 7 ESE 1018,9 40
24.09.2018 16:00:00 32,7 12,2 16 9 SE 1019,2 -
24.09.2018 15:00:00 33,2 13,0 18 10 SE 1019,4 40
24.09.2018 14:00:00 33,5 11,1 16 9 SE 1019,9 40
24.09.2018 13:00:00 34,2 11,8 11 6 ESE 1020,4 -
24.09.2018 12:00:00 31,7 12,9 4 2 WSW 1020,5 -
24.09.2018 11:00:00 27,5 13,4 15 8 WNW 1020,5 40
24.09.2018 10:00:00 23,5 12,9 16 9 WNW 1020,3 -
24.09.2018 09:00:00 19,7 13,1 18 10 WNW 1019,9 30
24.09.2018 08:00:00 19,2 13,4 18 10 WNW 1019,8 30
24.09.2018 07:00:00 19,7 13,0 18 10 WNW 1019,7 -
24.09.2018 06:00:00 20,3 13,5 13 7 WNW 1019,6 -
24.09.2018 05:00:00 21,0 13,6 15 8 W 1019,8 15
24.09.2018 04:00:00 21,3 14,0 11 6 W 1020,3 -
24.09.2018 03:00:00 21,7 14,0 11 6 W 1020,6 -
24.09.2018 02:00:00 23,5 14,2 13 7 W 1020,7 15
24.09.2018 01:00:00 23,7 14,7 11 6 W 1021,0 -
24.09.2018 00:00:00 24,5 14,2 11 6 W 1021,0 -
23.09.2018 23:00:00 24,8 16,4 9 5 W 1020,9 15
23.09.2018 22:00:00 25,0 16,8 4 2 SSW 1020,7 -
23.09.2018 21:00:00 26,1 18,2 4 2 E 1020,3 -
23.09.2018 20:00:00 27,6 18,1 8 4 SE 1020,2 40
23.09.2018 19:00:00 28,7 17,8 9 5 ESE 1020,2 -
23.09.2018 18:00:00 29,4 17,2 9 5 SE 1020,3 -
23.09.2018 17:00:00 29,8 17,3 13 7 SE 1020,4 40
23.09.2018 16:00:00 30,2 15,2 13 7 SE 1020,8 -
23.09.2018 15:00:00 30,7 15,4 18 10 SE 1021,2 40
23.09.2018 14:00:00 31,2 13,1 18 10 SE 1021,6 40
23.09.2018 13:00:00 31,4 11,8 15 8 SE 1021,8 -
23.09.2018 12:00:00 30,0 12,8 5 3 N 1022,1 -
23.09.2018 11:00:00 26,5 13,6 11 6 WNW 1022,2 40
23.09.2018 10:00:00 22,8 12,8 15 8 WNW 1021,9 -
23.09.2018 09:00:00 19,6 12,6 15 8 WNW 1021,5 30
23.09.2018 08:00:00 18,6 13,2 13 7 WNW 1021,1 25
23.09.2018 07:00:00 19,4 13,4 15 8 W 1021,1 -
23.09.2018 06:00:00 19,8 13,2 16 9 W 1021,1 -
23.09.2018 05:00:00 19,8 13,7 13 7 WNW 1021,3 15
23.09.2018 04:00:00 20,1 14,2 13 7 WNW 1021,5 -
23.09.2018 03:00:00 21,7 14,0 15 8 W 1022,1 -
23.09.2018 02:00:00 21,8 15,3 13 7 W 1022,4 15
23.09.2018 01:00:00 22,5 12,6 11 6 WNW 1022,8 -
23.09.2018 00:00:00 23,6 14,0 8 4 W 1022,8 -
22.09.2018 23:00:00 24,0 15,9 8 4 W 1022,7 15
22.09.2018 22:00:00 24,2 18,7 0 0 N 1022,2 -
22.09.2018 21:00:00 25,1 19,9 4 2 SE 1021,4 -
22.09.2018 20:00:00 26,6 20,9 8 4 SSE 1021,2 30
22.09.2018 19:00:00 27,4 21,1 13 7 SE 1021,0 -
22.09.2018 18:00:00 28,5 19,9 9 5 SE 1021,0 -
22.09.2018 17:00:00 28,4 20,8 11 6 ESE 1021,1 30
22.09.2018 16:00:00 27,9 21,7 13 7 ESE 1021,8 -
22.09.2018 15:00:00 28,2 22,4 16 9 ESE 1022,3 30
22.09.2018 14:00:00 28,1 22,5 15 8 ESE 1022,6 30
22.09.2018 13:00:00 27,9 21,8 15 8 ESE 1022,5 -
22.09.2018 12:00:00 27,1 21,7 11 6 ESE 1022,5 -
22.09.2018 11:00:00 26,2 21,3 8 4 E 1022,2 30
22.09.2018 10:00:00 22,7 15,9 4 2 WNW 1021,9 -
22.09.2018 09:00:00 20,3 16,0 9 5 WNW 1021,2 40
22.09.2018 08:00:00 19,5 15,7 11 6 WNW 1020,3 25
22.09.2018 07:00:00 20,5 16,5 8 4 NW 1019,9 -
22.09.2018 06:00:00 19,8 16,8 11 6 WNW 1019,6 -
22.09.2018 05:00:00 20,8 17,1 11 6 WNW 1019,4 20
22.09.2018 04:00:00 21,2 17,4 13 7 WNW 1019,7 -
22.09.2018 03:00:00 21,7 18,0 9 5 W 1019,9 -
22.09.2018 02:00:00 22,4 18,9 8 4 W 1019,9 20
22.09.2018 01:00:00 22,7 18,6 8 4 W 1019,9 -
22.09.2018 00:00:00 23,6 19,3 4 2 WNW 1019,7 -
21.09.2018 23:00:00 24,0 20,6 4 2 WNW 1019,5 20
21.09.2018 22:00:00 24,1 21,9 0 0 N 1019,2 -
21.09.2018 21:00:00 24,5 22,0 8 4 SE 1018,4 -
21.09.2018 20:00:00 25,8 21,9 11 6 SE 1018,1 25
21.09.2018 19:00:00 26,7 21,8 15 8 SSE 1017,8 -
21.09.2018 18:00:00 27,6 22,2 16 9 SE 1017,7 -
21.09.2018 17:00:00 27,5 22,6 18 10 SE 1018,0 30
21.09.2018 16:00:00 27,6 22,0 21 11 SE 1018,3 -
21.09.2018 15:00:00 27,7 21,3 21 11 SE 1018,5 30
21.09.2018 14:00:00 28,6 21,0 18 10 SE 1018,9 30
21.09.2018 13:00:00 28,2 21,5 16 9 SE 1019,3 -
21.09.2018 12:00:00 27,0 20,2 15 8 SE 1019,3 -
21.09.2018 11:00:00 26,4 20,0 8 4 ESE 1019,1 30
21.09.2018 10:00:00 23,3 18,1 11 6 W 1018,9 -
21.09.2018 09:00:00 20,6 17,8 13 7 W 1018,6 30
21.09.2018 08:00:00 20,0 17,3 11 6 W 1018,1 15
21.09.2018 07:00:00 21,1 17,9 9 5 WNW 1017,6 -
21.09.2018 06:00:00 21,1 18,3 13 7 WNW 1017,5 -
21.09.2018 05:00:00 21,1 18,5 13 7 WNW 1017,6 15
21.09.2018 04:00:00 21,2 18,9 13 7 WNW 1018,0 -
21.09.2018 03:00:00 21,9 19,3 11 6 W 1018,7 -
21.09.2018 02:00:00 22,9 19,4 9 5 WNW 1018,9 15
21.09.2018 01:00:00 23,0 19,5 5 3 WNW 1019,0 -
21.09.2018 00:00:00 22,9 21,0 5 3 SSW 1019,1 -
20.09.2018 23:00:00 23,8 21,4 2 1 SSW 1018,9 15
20.09.2018 22:00:00 24,2 22,1 11 6 ENE 1018,5 -
20.09.2018 21:00:00 24,8 21,9 8 4 SE 1018,2 -
20.09.2018 20:00:00 26,1 21,5 11 6 SE 1018,1 20
20.09.2018 19:00:00 27,0 22,3 11 6 SSE 1018,0 -
20.09.2018 18:00:00 27,7 22,0 11 6 ESE 1018,2 -
20.09.2018 17:00:00 28,1 22,3 13 7 ESE 1018,8 20
20.09.2018 16:00:00 28,5 22,4 15 8 ESE 1019,2 -
20.09.2018 15:00:00 28,2 21,9 13 7 SE 1019,8 20
20.09.2018 14:00:00 28,1 22,6 13 7 SE 1020,4 20
20.09.2018 13:00:00 28,2 22,3 13 7 SE 1020,7 -
20.09.2018 12:00:00 28,2 22,0 11 6 ESE 1020,9 -
20.09.2018 11:00:00 25,8 20,1 4 2 WNW 1020,7 15

tt = temperature
td = dewpoint
ff = wind speed
dd = wind direction
ppp = reduced air pressure
vv = visibility

Next stations